7 * 24
多渠道服务支持
YAOGAN-43 02A 是中国研制的一颗遥感卫星,主要用于科学实验和国土资源探测。该卫星属于遥感四十三号系列,具备高分辨率对地观测能力,能够获取高精度的地球表面图像,服务于环境监测、农业评估、灾害预警等多个领域。卫星采用先进的遥感技术和稳定的平台设计,提升了数据获取的效率和精度。其发射进一步增强了中国在遥感卫星领域的技术实力和应用能力。
中国
(CN)
| 数据来源 | 国际轨道数据 |
| 星历时间: | 2025-12-15T06:42:48+0800 20小时前 查看轨道信息 |
| 半长轴: | 6839.469km |
| 偏心率: | 0.0005781 |
| 轨道倾角: | 34.997° |
| 近地点辐角 | 308.519° |
| 升交点赤经 | 265.678° |
| 平近点角 | 51.500° |
| 近地点: | 457.38km |
| 远地点: | 465.288km |
| 周期: | 93.820分钟 |
| 每日圈数: | 15.348618 |